Skip Page Navigation
NASA JPL Caltech
NASA Logo - Jet Propulsion Laboratory + View the NASA Portal
+ Near-Earth Object (NEO) Program
Search JPL
JPL Home Earth Solar System Stars & Galaxies Technology
JPL Solar System Dynamics
BODIES ORBITS EPHEMERIDES TOOLS PHYSICAL DATA DISCOVERY FAQ SITE MAP
JPL Small-Body Database Browser
Search: [ help ]  
137126 (1999 CF9)
Classification: Apollo [NEO, PHA]          SPK-ID: 2137126
Ephemeris | Orbit Diagram | Orbital Elements | Physical Parameters | Discovery Circumstances | Close-Approach Data ]

[ hide orbit diagram ]
Orbit Diagram
Note: Make sure you have Java enabled on your browser to see the applet. This applet is provided as a 3D orbit visualization tool. The applet was implemented using 2-body methods, and hence should not be used for determining accurate long-term trajectories (over several years or decades) or planetary encounter circumstances. For accurate long-term ephemerides, please instead use our Horizons system.
Orbit Viewer

Additional Notes: the orbits shown in the applet are color coded. The planets are white lines, and the asteroid/comet is a blue line. The bright white line indicates the portion of the orbit that is above the ecliptic plane, and the darker portion is below the ecliptic plane. Likewise for the asteroid/comet orbit, the light blue indicates the portion above the ecliptic plane, and the dark blue the portion below the ecliptic plane.

Orbit Viewer applet originally written and kindly provided by Osamu Ajiki (AstroArts), and further modified by Ron Baalke (JPL).


Orbital Elements at Epoch 2456400.5 (2013-Apr-18.0) TDB
Reference: JPL 86 (heliocentric ecliptic J2000)
 Element Value Uncertainty (1-sigma)   Units 
e .6003180219752439 7.2401e-08  
a 1.771687107437524 1.8601e-08 AU
q .7081114075415883 1.2195e-07 AU
i 5.545214780304132 1.1228e-05 deg
node 157.1324347896452 3.4593e-05 deg
peri 90.19262354184701 3.8655e-05 deg
M 327.4982743157217 4.3027e-05 deg
tp 2456478.264768569977
(2013-Jul-04.76476857)
0.00010416 JED
period 861.3486236742638
2.36
1.3565e-05
3.714e-08
d
yr
n .4179492369353819 6.5821e-09 deg/d
Q 2.83526280733346 2.9768e-08 AU
  Orbit Determination Parameters
   # obs. used (total)      390  
   data-arc span      5231 days (14.32 yr)  
   first obs. used      1999-01-15  
   last obs. used      2013-05-12  
   planetary ephem.      DE405  
   SB-pert. ephem.      SB405-CPV-2  
   condition code      0  
   fit RMS      .59966  
   data source      ORB  
   producer      Otto Matic  
   solution date      2013-May-13 01:45:47  

Additional Information
 Earth MOID = .018927 AU 
 T_jup = 3.866 
[ show covariance matrix ]

Ephemeris | Orbit Diagram | Orbital Elements | Physical Parameters | Discovery Circumstances | Close-Approach Data ]

Physical Parameter Table
Parameter Symbol Value Units Sigma Reference Notes
absolute magnitude H 17.91 mag .71636 86 autocmod 2.5c
SMASSII spectral type spec_B Q   n/a Binzel et al. (2001) Icarus 151, 139-149  

137126 (1999 CF9)          Discovered 1999-Feb-12 by LINEAR at Socorro (704)
Reference: 20061205/Numbers.arcLast Updated: 2006-12-13

[ show close-approach data ]
Ephemeris | Orbit Diagram | Orbital Elements | Physical Parameters | Discovery Circumstances | Close-Approach Data ]
ABOUT SSD CREDITS/AWARDS PRIVACY/COPYRIGHT GLOSSARY LINKS
FirstGov 2013-May-26 00:21 UT
(server date/time)  
NASA Home Page
Site Manager:   Donald K. Yeomans
Webmaster  Alan B. Chamberlin